EZIE-A

operational
NORAD ID: 63247 Int'l Des: 2025-052 Owner: APL/JPL Country: US
LEOCIRCULARRETROGRADESSO

Über EZIE-A

Beschreibung wird geladen...

Live-Position

3D-Globus wird geladen...

Nächste Überflüge

Höhenverlauf

Altitude vs Time

uPlot chart will show altitude changes over time

Zweizeiliger Elementsatz

1 63247U 25052AP 26072.65617937 .00008454 00000-0 75117-3 0 9992
2 63247 97.7012 326.3516 0004189 133.7503 226.4066 14.96364093 54370
Epoch: 13. März 2026 • Age: 36 hours

Aktueller Status

Höhe 588.3 km
Geschwindigkeit 7.57 km/s
Subsatellitenpunkt -28.70°S, 151.79°E
Startdatum 15. März 2025
Alter 0.9 years
Typ other

Technische Details

Klassifizierung Payload
Masse 10.00 kg
Trockenmasse 10.00 kg
Gesamtmasse 10.00 kg
Länge 0.30 m
Durchmesser 0.10 m
Spannweite 0.30 m
Form Box
Hersteller APL
Bus-Typ Cubesat 6U
Phasenstatus In Orbit
Besitzer/Staat APL/JPL/US

Große Konstellationen

Loading constellations...